This is the latest recevied weather packets stored in our database for station/object DL1SEW-6. If no packets are shown the sender has not sent any weather packets the latest 10 day(s).
| Time | Temp. | Humidity | Pressure | Rain* | Wind** | Luminosity | Snow |
|---|---|---|---|---|---|---|---|
| 1777893010 | 20° C | 39% | 1013.6 hPa | 0 mm | - | 433 W/m² | - |
| 1777892113 | 20° C | 39% | 1013.7 hPa | 0 mm | - | 487 W/m² | - |
| 1777891213 | 19.44° C | 42% | 1013.7 hPa | 0 mm | - | 430 W/m² | - |
| 1777890314 | 19.44° C | 42% | 1013.8 hPa | 0 mm | - | 371 W/m² | - |
| 1777889413 | 19.44° C | 43% | 1013.9 hPa | 0 mm | - | 454 W/m² | - |
| 1777888512 | 19.44° C | 42% | 1013.9 hPa | 0 mm | - | 369 W/m² | - |
| 1777887613 | 20° C | 38% | 1014.1 hPa | 0 mm | - | 383 W/m² | - |
| 1777886713 | 20.56° C | 38% | 1014.1 hPa | 0 mm | - | 486 W/m² | - |
| 1777885812 | 20.56° C | 37% | 1014.2 hPa | 0 mm | - | 682 W/m² | - |
| 1777884912 | 20.56° C | 40% | 1014.4 hPa | 0 mm | - | 692 W/m² | - |
| 1777884011 | 19.44° C | 40% | 1014.2 hPa | 0 mm | - | 663 W/m² | - |
| 1777883113 | 18.89° C | 44% | 1014.3 hPa | 0 mm | - | 628 W/m² | - |
| 1777882212 | 18.33° C | 46% | 1014.3 hPa | 0 mm | - | 527 W/m² | - |
| 1777881310 | 17.22° C | 48% | 1014.2 hPa | 0 mm | - | 392 W/m² | - |
| 1777880410 | 16.67° C | 53% | 1014.2 hPa | 0 mm | - | 353 W/m² | - |
| 1777879510 | 16.11° C | 62% | 1014 hPa | 0 mm | - | 309 W/m² | - |
| 1777878610 | 15.56° C | 63% | 1013.8 hPa | 0 mm | - | 230 W/m² | - |
| 1777877710 | 14.44° C | 67% | 1013.6 hPa | 0 mm | - | 289 W/m² | - |
| 1777876810 | 13.89° C | 67% | 1013.4 hPa | 0 mm | - | 222 W/m² | - |
| 1777875909 | 13.33° C | 69% | 1013.5 hPa | 0 mm | - | 206 W/m² | - |
| 1777875009 | 12.22° C | 72% | 1013.3 hPa | 0 mm | - | 214 W/m² | - |
| 1777874109 | 11.11° C | 72% | 1013.3 hPa | 0 mm | - | 156 W/m² | - |
| 1777873210 | 10.56° C | 72% | 1013.2 hPa | 0 mm | - | 127 W/m² | - |
| 1777872311 | 10.56° C | 71% | 1013.3 hPa | 0 mm | - | 88 W/m² | - |
| 1777871412 | 10.56° C | 72% | 1013.3 hPa | 0 mm | - | 86 W/m² | - |
* Rain latest hour (hover to see other rain measurements)
** Current wind speed in m/s (hover to see current wind gust speed)